owner,sensor,date,latitude,longitude,vertical_datum,wind_speed,wind_to_direction,wind_speed_of_gust,qcFlag 
DISL,ioos:station:DISL:CATA:1,2013-12-01T00:30:00Z,30.3085,-88.1395,0.0,1.7,340.0,99.0,'11111222,11111222,11144222' 
DISL,ioos:station:DISL:CATA:1,2013-12-01T01:00:00Z,30.3085,-88.1395,0.0,1.1,358.0,99.0,'11111222,11111222,11144222' 
DISL,ioos:station:DISL:CATA:1,2013-12-01T01:30:00Z,30.3085,-88.1395,0.0,0.4,142.0,99.0,'11111222,11111222,11144222' 
DISL,ioos:station:DISL:CATA:1,2013-12-01T02:00:00Z,30.3085,-88.1395,0.0,0.9,141.0,99.0,'11111222,11111222,11144222' 
DISL,ioos:station:DISL:CATA:1,2013-12-01T02:30:00Z,30.3085,-88.1395,0.0,0.2,138.0,99.0,'11111222,11111222,11144222' 
DISL,ioos:station:DISL:CATA:1,2013-12-01T03:00:00Z,30.3085,-88.1395,0.0,0.1,137.0,99.0,'11111222,11111222,11144222' 
DISL,ioos:station:DISL:CATA:1,2013-12-01T03:30:00Z,30.3085,-88.1395,0.0,1.2,348.0,99.0,'11111222,11111222,11144222' 
DISL,ioos:station:DISL:CATA:1,2013-12-01T04:00:00Z,30.3085,-88.1395,0.0,1.5,341.0,99.0,'11111222,11111222,11144222' 
DISL,ioos:station:DISL:CATA:1,2013-12-01T04:30:00Z,30.3085,-88.1395,0.0,1.2,347.0,99.0,'11111222,11111222,11144222' 
DISL,ioos:station:DISL:CATA:1,2013-12-01T05:00:00Z,30.3085,-88.1395,0.0,1.4,45.0,99.0,'11111222,11111222,11144222' 
DISL,ioos:station:DISL:CATA:1,2013-12-01T05:30:00Z,30.3085,-88.1395,0.0,2.0,60.0,99.0,'11111222,11111222,11144222' 
DISL,ioos:station:DISL:CATA:1,2013-12-01T06:30:00Z,30.3085,-88.1395,0.0,3.0,42.0,99.0,'11111222,11111222,11144222' 
DISL,ioos:station:DISL:CATA:1,2013-12-01T07:00:00Z,30.3085,-88.1395,0.0,3.3,41.0,99.0,'11111222,11111222,11144222' 
DISL,ioos:station:DISL:CATA:1,2013-12-01T07:30:00Z,30.3085,-88.1395,0.0,3.7,40.0,99.0,'11111222,11111222,11144222' 
DISL,ioos:station:DISL:CATA:1,2013-12-01T08:00:00Z,30.3085,-88.1395,0.0,3.7,36.0,99.0,'11111222,11111222,11144222' 
DISL,ioos:station:DISL:CATA:1,2013-12-01T08:30:00Z,30.3085,-88.1395,0.0,4.2,41.0,99.0,'11111222,11111222,11144222' 
DISL,ioos:station:DISL:CATA:1,2013-12-01T09:00:00Z,30.3085,-88.1395,0.0,4.5,37.0,99.0,'11111222,11111222,11144222' 
DISL,ioos:station:DISL:CATA:1,2013-12-01T09:30:00Z,30.3085,-88.1395,0.0,3.7,33.0,99.0,'11111222,11111222,11144222' 
DISL,ioos:station:DISL:CATA:1,2013-12-01T10:00:00Z,30.3085,-88.1395,0.0,2.4,339.0,99.0,'11111222,11111222,11144222' 
DISL,ioos:station:DISL:CATA:1,2013-12-01T10:30:00Z,30.3085,-88.1395,0.0,2.4,357.0,99.0,'11111222,11111222,11144222' 
DISL,ioos:station:DISL:CATA:1,2013-12-01T11:00:00Z,30.3085,-88.1395,0.0,2.1,357.0,99.0,'11111222,11111222,11144222' 
DISL,ioos:station:DISL:CATA:1,2013-12-01T11:30:00Z,30.3085,-88.1395,0.0,2.4,359.0,99.0,'11111222,11111222,11144222' 
DISL,ioos:station:DISL:CATA:1,2013-12-01T12:00:00Z,30.3085,-88.1395,0.0,2.3,17.0,99.0,'11111222,11111222,11144222' 
DISL,ioos:station:DISL:CATA:1,2013-12-01T12:30:00Z,30.3085,-88.1395,0.0,2.4,18.0,99.0,'11111222,11111222,11144222' 
DISL,ioos:station:DISL:CATA:1,2013-12-01T13:00:00Z,30.3085,-88.1395,0.0,2.6,22.0,99.0,'11111222,11111222,11144222' 
DISL,ioos:station:DISL:CATA:1,2013-12-01T13:30:00Z,30.3085,-88.1395,0.0,3.0,11.0,99.0,'11111222,11111222,11144222' 
DISL,ioos:station:DISL:CATA:1,2013-12-01T14:00:00Z,30.3085,-88.1395,0.0,3.2,4.0,99.0,'11111222,11111222,11144222' 
DISL,ioos:station:DISL:CATA:1,2013-12-01T14:30:00Z,30.3085,-88.1395,0.0,2.7,26.0,99.0,'11111222,11111222,11144222' 
DISL,ioos:station:DISL:CATA:1,2013-12-01T15:00:00Z,30.3085,-88.1395,0.0,4.3,39.0,99.0,'11111222,11111222,11144222' 
DISL,ioos:station:DISL:CATA:1,2013-12-01T15:30:00Z,30.3085,-88.1395,0.0,3.3,50.0,99.0,'11111222,11111222,11144222' 
DISL,ioos:station:DISL:CATA:1,2013-12-01T16:00:00Z,30.3085,-88.1395,0.0,3.4,59.0,99.0,'11111222,11111222,11144222' 
DISL,ioos:station:DISL:CATA:1,2013-12-01T16:30:00Z,30.3085,-88.1395,0.0,3.2,75.0,99.0,'11111222,11111222,11144222' 
DISL,ioos:station:DISL:CATA:1,2013-12-01T17:00:00Z,30.3085,-88.1395,0.0,3.6,60.0,99.0,'11111222,11111222,11144222' 
DISL,ioos:station:DISL:CATA:1,2013-12-01T17:30:00Z,30.3085,-88.1395,0.0,3.7,56.0,99.0,'11111222,11111222,11144222' 
DISL,ioos:station:DISL:CATA:1,2013-12-01T18:00:00Z,30.3085,-88.1395,0.0,2.7,68.0,99.0,'11111222,11111222,11144222' 
DISL,ioos:station:DISL:CATA:1,2013-12-01T18:30:00Z,30.3085,-88.1395,0.0,2.6,68.0,99.0,'11111222,11111222,11144222' 
DISL,ioos:station:DISL:CATA:1,2013-12-01T19:00:00Z,30.3085,-88.1395,0.0,2.6,103.0,99.0,'11111222,11111222,11144222' 
DISL,ioos:station:DISL:CATA:1,2013-12-01T19:30:00Z,30.3085,-88.1395,0.0,1.9,84.0,99.0,'11111222,11111222,11144222' 
DISL,ioos:station:DISL:CATA:1,2013-12-01T20:00:00Z,30.3085,-88.1395,0.0,1.5,105.0,99.0,'11111222,11111222,11144222' 
DISL,ioos:station:DISL:CATA:1,2013-12-01T20:30:00Z,30.3085,-88.1395,0.0,0.9,104.0,99.0,'11111222,11111222,11144222' 
DISL,ioos:station:DISL:CATA:1,2013-12-01T21:00:00Z,30.3085,-88.1395,0.0,1.8,151.0,99.0,'11111222,11111222,11144222' 
DISL,ioos:station:DISL:CATA:1,2013-12-01T21:30:00Z,30.3085,-88.1395,0.0,0.9,128.0,99.0,'11111222,11111222,11144222' 
DISL,ioos:station:DISL:CATA:1,2013-12-01T22:00:00Z,30.3085,-88.1395,0.0,1.7,127.0,99.0,'11111222,11111222,11144222' 
DISL,ioos:station:DISL:CATA:1,2013-12-01T22:30:00Z,30.3085,-88.1395,0.0,1.4,140.0,99.0,'11111222,11111222,11144222' 
DISL,ioos:station:DISL:CATA:1,2013-12-01T23:00:00Z,30.3085,-88.1395,0.0,2.5,152.0,99.0,'11111222,11111222,11144222' 
DISL,ioos:station:DISL:CATA:1,2013-12-01T23:30:00Z,30.3085,-88.1395,0.0,2.2,153.0,99.0,'11111222,11111222,11144222' 
DISL,ioos:station:DISL:CATA:1,2013-12-02T00:00:00Z,30.3085,-88.1395,0.0,1.5,191.0,99.0,'11111222,11111222,11144222' 
DISL,ioos:station:DISL:CATA:1,2013-12-02T00:30:00Z,30.3085,-88.1395,0.0,1.2,153.0,99.0,'11111222,11111222,11144222' 
DISL,ioos:station:DISL:CATA:1,2013-12-02T01:00:00Z,30.3085,-88.1395,0.0,0.1,353.0,99.0,'11111222,11111222,11144222' 
DISL,ioos:station:DISL:CATA:1,2013-12-02T01:30:00Z,30.3085,-88.1395,0.0,1.3,213.0,99.0,'11111222,11111222,11144222' 
DISL,ioos:station:DISL:CATA:1,2013-12-02T02:00:00Z,30.3085,-88.1395,0.0,1.6,207.0,99.0,'11111222,11111222,11144222' 
DISL,ioos:station:DISL:CATA:1,2013-12-02T02:30:00Z,30.3085,-88.1395,0.0,2.4,227.0,99.0,'11111222,11111222,11144222' 
DISL,ioos:station:DISL:CATA:1,2013-12-02T03:00:00Z,30.3085,-88.1395,0.0,1.7,197.0,99.0,'11111222,11111222,11144222' 
DISL,ioos:station:DISL:CATA:1,2013-12-02T03:30:00Z,30.3085,-88.1395,0.0,1.2,150.0,99.0,'11111222,11111222,11144222' 
DISL,ioos:station:DISL:CATA:1,2013-12-02T04:00:00Z,30.3085,-88.1395,0.0,0.2,153.0,99.0,'11111222,11111222,11144222' 
DISL,ioos:station:DISL:CATA:1,2013-12-02T04:30:00Z,30.3085,-88.1395,0.0,1.2,331.0,99.0,'11111222,11111222,11144222' 
DISL,ioos:station:DISL:CATA:1,2013-12-02T05:00:00Z,30.3085,-88.1395,0.0,0.7,337.0,99.0,'11111222,11111222,11144222' 
DISL,ioos:station:DISL:CATA:1,2013-12-02T05:30:00Z,30.3085,-88.1395,0.0,0.7,342.0,99.0,'11111222,11111222,11144222' 
DISL,ioos:station:DISL:CATA:1,2013-12-02T06:30:00Z,30.3085,-88.1395,0.0,1.0,22.0,99.0,'11111222,11111222,11144222' 
DISL,ioos:station:DISL:CATA:1,2013-12-02T07:00:00Z,30.3085,-88.1395,0.0,1.3,62.0,99.0,'11111222,11111222,11144222' 
DISL,ioos:station:DISL:CATA:1,2013-12-02T07:30:00Z,30.3085,-88.1395,0.0,3.2,44.0,99.0,'11111222,11111222,11144222' 
DISL,ioos:station:DISL:CATA:1,2013-12-02T08:00:00Z,30.3085,-88.1395,0.0,3.1,48.0,99.0,'11111222,11111222,11144222' 
DISL,ioos:station:DISL:CATA:1,2013-12-02T08:30:00Z,30.3085,-88.1395,0.0,1.7,46.0,99.0,'11111222,11111222,11144222' 
DISL,ioos:station:DISL:CATA:1,2013-12-02T09:00:00Z,30.3085,-88.1395,0.0,1.3,17.0,99.0,'11111222,11111222,11144222' 
DISL,ioos:station:DISL:CATA:1,2013-12-02T09:30:00Z,30.3085,-88.1395,0.0,1.3,16.0,99.0,'11111222,11111222,11144222' 
DISL,ioos:station:DISL:CATA:1,2013-12-02T10:00:00Z,30.3085,-88.1395,0.0,0.7,116.0,99.0,'11111222,11111222,11144222' 
DISL,ioos:station:DISL:CATA:1,2013-12-02T10:30:00Z,30.3085,-88.1395,0.0,1.9,41.0,99.0,'11111222,11111222,11144222' 
DISL,ioos:station:DISL:CATA:1,2013-12-02T11:00:00Z,30.3085,-88.1395,0.0,1.7,355.0,99.0,'11111222,11111222,11144222' 
DISL,ioos:station:DISL:CATA:1,2013-12-02T11:30:00Z,30.3085,-88.1395,0.0,0.6,313.0,99.0,'11111222,11111222,11144222' 
DISL,ioos:station:DISL:CATA:1,2013-12-02T12:00:00Z,30.3085,-88.1395,0.0,1.1,196.0,99.0,'11111222,11111222,11144222' 
DISL,ioos:station:DISL:CATA:1,2013-12-02T12:30:00Z,30.3085,-88.1395,0.0,0.8,187.0,99.0,'11111222,11111222,11144222' 
DISL,ioos:station:DISL:CATA:1,2013-12-02T13:00:00Z,30.3085,-88.1395,0.0,0.9,148.0,99.0,'11111222,11111222,11144222' 
DISL,ioos:station:DISL:CATA:1,2013-12-02T13:30:00Z,30.3085,-88.1395,0.0,0.0,116.0,99.0,'11111222,11111222,11144222' 
DISL,ioos:station:DISL:CATA:1,2013-12-02T14:00:00Z,30.3085,-88.1395,0.0,0.7,64.0,99.0,'11111222,11111222,11144222' 
DISL,ioos:station:DISL:CATA:1,2013-12-02T14:30:00Z,30.3085,-88.1395,0.0,1.3,85.0,99.0,'11111222,11111222,11144222' 
DISL,ioos:station:DISL:CATA:1,2013-12-02T15:00:00Z,30.3085,-88.1395,0.0,1.3,134.0,99.0,'11111222,11111222,11144222' 
DISL,ioos:station:DISL:CATA:1,2013-12-02T15:30:00Z,30.3085,-88.1395,0.0,1.1,126.0,99.0,'11111222,11111222,11144222' 
DISL,ioos:station:DISL:CATA:1,2013-12-02T16:00:00Z,30.3085,-88.1395,0.0,1.2,104.0,99.0,'11111222,11111222,11144222' 
DISL,ioos:station:DISL:CATA:1,2013-12-02T16:30:00Z,30.3085,-88.1395,0.0,1.1,168.0,99.0,'11111222,11111222,11144222' 
DISL,ioos:station:DISL:CATA:1,2013-12-02T17:00:00Z,30.3085,-88.1395,0.0,2.2,196.0,99.0,'11111222,11111222,11144222' 
DISL,ioos:station:DISL:CATA:1,2013-12-02T17:30:00Z,30.3085,-88.1395,0.0,2.0,206.0,99.0,'11111222,11111222,11144222' 
DISL,ioos:station:DISL:CATA:1,2013-12-02T18:00:00Z,30.3085,-88.1395,0.0,1.4,204.0,99.0,'11111222,11111222,11144222' 
DISL,ioos:station:DISL:CATA:1,2013-12-02T18:30:00Z,30.3085,-88.1395,0.0,2.3,186.0,99.0,'11111222,11111222,11144222' 
DISL,ioos:station:DISL:CATA:1,2013-12-02T19:00:00Z,30.3085,-88.1395,0.0,2.1,189.0,99.0,'11111222,11111222,11144222' 
DISL,ioos:station:DISL:CATA:1,2013-12-02T19:30:00Z,30.3085,-88.1395,0.0,3.3,196.0,99.0,'11111222,11111222,11144222' 
DISL,ioos:station:DISL:CATA:1,2013-12-02T20:00:00Z,30.3085,-88.1395,0.0,3.2,201.0,99.0,'11111222,11111222,11144222' 
DISL,ioos:station:DISL:CATA:1,2013-12-02T20:30:00Z,30.3085,-88.1395,0.0,3.0,205.0,99.0,'11111222,11111222,11144222' 
DISL,ioos:station:DISL:CATA:1,2013-12-02T21:00:00Z,30.3085,-88.1395,0.0,3.0,190.0,99.0,'11111222,11111222,11144222' 
DISL,ioos:station:DISL:CATA:1,2013-12-02T21:30:00Z,30.3085,-88.1395,0.0,3.1,181.0,99.0,'11111222,11111222,11144222' 
DISL,ioos:station:DISL:CATA:1,2013-12-02T22:00:00Z,30.3085,-88.1395,0.0,3.2,180.0,99.0,'11111222,11111222,11144222' 
DISL,ioos:station:DISL:CATA:1,2013-12-02T22:30:00Z,30.3085,-88.1395,0.0,3.2,155.0,99.0,'11111222,11111222,11144222' 
DISL,ioos:station:DISL:CATA:1,2013-12-02T23:00:00Z,30.3085,-88.1395,0.0,2.9,154.0,99.0,'11111222,11111222,11144222' 
DISL,ioos:station:DISL:CATA:1,2013-12-02T23:30:00Z,30.3085,-88.1395,0.0,2.8,165.0,99.0,'11111222,11111222,11144222' 
DISL,ioos:station:DISL:CATA:1,2013-12-03T00:00:00Z,30.3085,-88.1395,0.0,2.9,163.0,99.0,'11111222,11111222,11144222' 
DISL,ioos:station:DISL:CATA:1,2013-12-03T00:30:00Z,30.3085,-88.1395,0.0,2.9,154.0,99.0,'11111222,11111222,11144222' 
DISL,ioos:station:DISL:CATA:1,2013-12-03T01:00:00Z,30.3085,-88.1395,0.0,3.6,171.0,99.0,'11111222,11111222,11144222' 
DISL,ioos:station:DISL:CATA:1,2013-12-03T01:30:00Z,30.3085,-88.1395,0.0,3.7,185.0,99.0,'11111222,11111222,11144222' 
DISL,ioos:station:DISL:CATA:1,2013-12-03T02:00:00Z,30.3085,-88.1395,0.0,4.2,184.0,99.0,'11111222,11111222,11144222' 
DISL,ioos:station:DISL:CATA:1,2013-12-03T02:30:00Z,30.3085,-88.1395,0.0,4.2,186.0,99.0,'11111222,11111222,11144222' 
DISL,ioos:station:DISL:CATA:1,2013-12-03T03:00:00Z,30.3085,-88.1395,0.0,4.4,193.0,99.0,'11111222,11111222,11144222' 
DISL,ioos:station:DISL:CATA:1,2013-12-03T03:30:00Z,30.3085,-88.1395,0.0,3.8,194.0,99.0,'11111222,11111222,11144222' 
DISL,ioos:station:DISL:CATA:1,2013-12-03T04:00:00Z,30.3085,-88.1395,0.0,3.6,209.0,99.0,'11111222,11111222,11144222' 
DISL,ioos:station:DISL:CATA:1,2013-12-03T04:30:00Z,30.3085,-88.1395,0.0,3.2,223.0,99.0,'11111222,11111222,11144222' 
DISL,ioos:station:DISL:CATA:1,2013-12-03T05:00:00Z,30.3085,-88.1395,0.0,4.2,206.0,99.0,'11111222,11111222,11144222' 
DISL,ioos:station:DISL:CATA:1,2013-12-03T05:30:00Z,30.3085,-88.1395,0.0,3.7,205.0,99.0,'11111222,11111222,11144222' 
DISL,ioos:station:DISL:CATA:1,2013-12-03T06:30:00Z,30.3085,-88.1395,0.0,5.3,212.0,99.0,'11111222,11111222,11144222' 
DISL,ioos:station:DISL:CATA:1,2013-12-03T07:00:00Z,30.3085,-88.1395,0.0,5.5,202.0,99.0,'11111222,11111222,11144222' 
DISL,ioos:station:DISL:CATA:1,2013-12-03T07:30:00Z,30.3085,-88.1395,0.0,4.6,206.0,99.0,'11111222,11111222,11144222' 
DISL,ioos:station:DISL:CATA:1,2013-12-03T08:00:00Z,30.3085,-88.1395,0.0,4.1,207.0,99.0,'11111222,11111222,11144222' 
DISL,ioos:station:DISL:CATA:1,2013-12-03T08:30:00Z,30.3085,-88.1395,0.0,4.1,207.0,99.0,'11111222,11111222,11144222' 
DISL,ioos:station:DISL:CATA:1,2013-12-03T09:00:00Z,30.3085,-88.1395,0.0,4.7,210.0,99.0,'11111222,11111222,11144222' 
DISL,ioos:station:DISL:CATA:1,2013-12-03T09:30:00Z,30.3085,-88.1395,0.0,4.6,208.0,99.0,'11111222,11111222,11144222' 
DISL,ioos:station:DISL:CATA:1,2013-12-03T10:00:00Z,30.3085,-88.1395,0.0,5.1,203.0,99.0,'11111222,11111222,11144222' 
DISL,ioos:station:DISL:CATA:1,2013-12-03T10:30:00Z,30.3085,-88.1395,0.0,5.3,201.0,99.0,'11111222,11111222,11144222' 
DISL,ioos:station:DISL:CATA:1,2013-12-03T11:00:00Z,30.3085,-88.1395,0.0,4.9,205.0,99.0,'11111222,11111222,11144222' 
DISL,ioos:station:DISL:CATA:1,2013-12-03T11:30:00Z,30.3085,-88.1395,0.0,4.1,215.0,99.0,'11111222,11111222,11144222' 
DISL,ioos:station:DISL:CATA:1,2013-12-03T12:00:00Z,30.3085,-88.1395,0.0,3.2,207.0,99.0,'11111222,11111222,11144222' 
DISL,ioos:station:DISL:CATA:1,2013-12-03T12:30:00Z,30.3085,-88.1395,0.0,3.8,200.0,99.0,'11111222,11111222,11144222' 
DISL,ioos:station:DISL:CATA:1,2013-12-03T13:00:00Z,30.3085,-88.1395,0.0,4.0,199.0,99.0,'11111222,11111222,11144222' 
DISL,ioos:station:DISL:CATA:1,2013-12-03T13:30:00Z,30.3085,-88.1395,0.0,4.6,195.0,99.0,'11111222,11111222,11144222' 
DISL,ioos:station:DISL:CATA:1,2013-12-03T14:00:00Z,30.3085,-88.1395,0.0,4.7,191.0,99.0,'11111222,11111222,11144222' 
DISL,ioos:station:DISL:CATA:1,2013-12-03T14:30:00Z,30.3085,-88.1395,0.0,4.4,203.0,99.0,'11111222,11111222,11144222' 
DISL,ioos:station:DISL:CATA:1,2013-12-03T15:00:00Z,30.3085,-88.1395,0.0,4.6,199.0,99.0,'11111222,11111222,11144222' 
DISL,ioos:station:DISL:CATA:1,2013-12-03T15:30:00Z,30.3085,-88.1395,0.0,5.1,209.0,99.0,'11111222,11111222,11144222' 
DISL,ioos:station:DISL:CATA:1,2013-12-03T16:00:00Z,30.3085,-88.1395,0.0,5.9,203.0,99.0,'11111222,11111222,11144222' 
DISL,ioos:station:DISL:CATA:1,2013-12-03T16:30:00Z,30.3085,-88.1395,0.0,6.0,202.0,99.0,'11111222,11111222,11144222' 
DISL,ioos:station:DISL:CATA:1,2013-12-03T17:00:00Z,30.3085,-88.1395,0.0,5.5,200.0,99.0,'11111222,11111222,11144222' 
DISL,ioos:station:DISL:CATA:1,2013-12-03T17:30:00Z,30.3085,-88.1395,0.0,5.3,200.0,99.0,'11111222,11111222,11144222' 
DISL,ioos:station:DISL:CATA:1,2013-12-03T18:00:00Z,30.3085,-88.1395,0.0,5.5,201.0,99.0,'11111222,11111222,11144222' 
DISL,ioos:station:DISL:CATA:1,2013-12-03T18:30:00Z,30.3085,-88.1395,0.0,5.6,200.0,99.0,'11111222,11111222,11144222' 
DISL,ioos:station:DISL:CATA:1,2013-12-03T19:00:00Z,30.3085,-88.1395,0.0,5.7,200.0,99.0,'11111222,11111222,11144222' 
DISL,ioos:station:DISL:CATA:1,2013-12-03T19:30:00Z,30.3085,-88.1395,0.0,5.7,202.0,99.0,'11111222,11111222,11144222' 
DISL,ioos:station:DISL:CATA:1,2013-12-03T20:00:00Z,30.3085,-88.1395,0.0,5.8,197.0,99.0,'11111222,11111222,11144222' 
DISL,ioos:station:DISL:CATA:1,2013-12-03T20:30:00Z,30.3085,-88.1395,0.0,5.3,202.0,99.0,'11111222,11111222,11144222' 
DISL,ioos:station:DISL:CATA:1,2013-12-03T21:00:00Z,30.3085,-88.1395,0.0,5.5,201.0,99.0,'11111222,11111222,11144222' 
DISL,ioos:station:DISL:CATA:1,2013-12-03T21:30:00Z,30.3085,-88.1395,0.0,6.0,199.0,99.0,'11111222,11111222,11144222' 
DISL,ioos:station:DISL:CATA:1,2013-12-03T22:00:00Z,30.3085,-88.1395,0.0,6.2,206.0,99.0,'11111222,11111222,11144222' 
DISL,ioos:station:DISL:CATA:1,2013-12-03T22:30:00Z,30.3085,-88.1395,0.0,6.6,197.0,99.0,'11111222,11111222,11144222' 
DISL,ioos:station:DISL:CATA:1,2013-12-03T23:00:00Z,30.3085,-88.1395,0.0,6.7,198.0,99.0,'11111222,11111222,11144222' 
DISL,ioos:station:DISL:CATA:1,2013-12-03T23:30:00Z,30.3085,-88.1395,0.0,5.9,201.0,99.0,'11111222,11111222,11144222' 
DISL,ioos:station:DISL:CATA:1,2013-12-04T00:00:00Z,30.3085,-88.1395,0.0,4.8,198.0,99.0,'11111222,11111222,11144222' 
DISL,ioos:station:DISL:CATA:1,2013-12-04T00:30:00Z,30.3085,-88.1395,0.0,5.0,203.0,99.0,'11111222,11111222,11144222' 
DISL,ioos:station:DISL:CATA:1,2013-12-04T01:00:00Z,30.3085,-88.1395,0.0,5.6,203.0,99.0,'11111222,11111222,11144222' 
DISL,ioos:station:DISL:CATA:1,2013-12-04T01:30:00Z,30.3085,-88.1395,0.0,6.2,205.0,99.0,'11111222,11111222,11144222' 
DISL,ioos:station:DISL:CATA:1,2013-12-04T02:00:00Z,30.3085,-88.1395,0.0,5.4,203.0,99.0,'11111222,11111222,11144222' 
DISL,ioos:station:DISL:CATA:1,2013-12-04T02:30:00Z,30.3085,-88.1395,0.0,5.8,202.0,99.0,'11111222,11111222,11144222' 
DISL,ioos:station:DISL:CATA:1,2013-12-04T03:00:00Z,30.3085,-88.1395,0.0,6.0,204.0,99.0,'11111222,11111222,11144222' 
DISL,ioos:station:DISL:CATA:1,2013-12-04T03:30:00Z,30.3085,-88.1395,0.0,6.4,205.0,99.0,'11111222,11111222,11144222' 
DISL,ioos:station:DISL:CATA:1,2013-12-04T04:00:00Z,30.3085,-88.1395,0.0,5.7,204.0,99.0,'11111222,11111222,11144222' 
DISL,ioos:station:DISL:CATA:1,2013-12-04T04:30:00Z,30.3085,-88.1395,0.0,5.0,206.0,99.0,'11111222,11111222,11144222' 
DISL,ioos:station:DISL:CATA:1,2013-12-04T05:00:00Z,30.3085,-88.1395,0.0,5.4,206.0,99.0,'11111222,11111222,11144222' 
DISL,ioos:station:DISL:CATA:1,2013-12-04T05:30:00Z,30.3085,-88.1395,0.0,5.2,203.0,99.0,'11111222,11111222,11144222' 
DISL,ioos:station:DISL:CATA:1,2013-12-04T06:30:00Z,30.3085,-88.1395,0.0,4.4,210.0,99.0,'11111222,11111222,11144222' 
DISL,ioos:station:DISL:CATA:1,2013-12-04T07:00:00Z,30.3085,-88.1395,0.0,4.2,201.0,99.0,'11111222,11111222,11144222' 
DISL,ioos:station:DISL:CATA:1,2013-12-04T07:30:00Z,30.3085,-88.1395,0.0,3.2,208.0,99.0,'11111222,11111222,11144222' 
DISL,ioos:station:DISL:CATA:1,2013-12-04T08:00:00Z,30.3085,-88.1395,0.0,2.5,208.0,99.0,'11111222,11111222,11144222' 
DISL,ioos:station:DISL:CATA:1,2013-12-04T08:30:00Z,30.3085,-88.1395,0.0,3.1,203.0,99.0,'11111222,11111222,11144222' 
DISL,ioos:station:DISL:CATA:1,2013-12-04T09:00:00Z,30.3085,-88.1395,0.0,3.6,194.0,99.0,'11111222,11111222,11144222' 
DISL,ioos:station:DISL:CATA:1,2013-12-04T09:30:00Z,30.3085,-88.1395,0.0,3.9,193.0,99.0,'11111222,11111222,11144222' 
DISL,ioos:station:DISL:CATA:1,2013-12-04T10:00:00Z,30.3085,-88.1395,0.0,3.9,183.0,99.0,'11111222,11111222,11144222' 
DISL,ioos:station:DISL:CATA:1,2013-12-04T10:30:00Z,30.3085,-88.1395,0.0,3.8,179.0,99.0,'11111222,11111222,11144222' 
DISL,ioos:station:DISL:CATA:1,2013-12-04T11:00:00Z,30.3085,-88.1395,0.0,3.7,180.0,99.0,'11111222,11111222,11144222' 
DISL,ioos:station:DISL:CATA:1,2013-12-04T11:30:00Z,30.3085,-88.1395,0.0,4.3,180.0,99.0,'11111222,11111222,11144222' 
DISL,ioos:station:DISL:CATA:1,2013-12-04T12:00:00Z,30.3085,-88.1395,0.0,3.9,176.0,99.0,'11111222,11111222,11144222' 
DISL,ioos:station:DISL:CATA:1,2013-12-04T12:30:00Z,30.3085,-88.1395,0.0,3.8,176.0,99.0,'11111222,11111222,11144222' 
DISL,ioos:station:DISL:CATA:1,2013-12-04T13:00:00Z,30.3085,-88.1395,0.0,3.7,171.0,99.0,'11111222,11111222,11144222' 
DISL,ioos:station:DISL:CATA:1,2013-12-04T13:30:00Z,30.3085,-88.1395,0.0,1.2,120.0,99.0,'11111222,11111222,11144222' 
DISL,ioos:station:DISL:CATA:1,2013-12-04T14:00:00Z,30.3085,-88.1395,0.0,1.7,59.0,99.0,'11111222,11111222,11144222' 
DISL,ioos:station:DISL:CATA:1,2013-12-04T14:30:00Z,30.3085,-88.1395,0.0,1.9,60.0,99.0,'11111222,11111222,11144222' 
DISL,ioos:station:DISL:CATA:1,2013-12-04T15:00:00Z,30.3085,-88.1395,0.0,1.1,152.0,99.0,'11111222,11111222,11144222' 
DISL,ioos:station:DISL:CATA:1,2013-12-04T15:30:00Z,30.3085,-88.1395,0.0,1.0,214.0,99.0,'11111222,11111222,11144222' 
DISL,ioos:station:DISL:CATA:1,2013-12-04T16:00:00Z,30.3085,-88.1395,0.0,2.2,210.0,99.0,'11111222,11111222,11144222' 
DISL,ioos:station:DISL:CATA:1,2013-12-04T16:30:00Z,30.3085,-88.1395,0.0,2.7,192.0,99.0,'11111222,11111222,11144222' 
DISL,ioos:station:DISL:CATA:1,2013-12-04T17:00:00Z,30.3085,-88.1395,0.0,3.3,219.0,99.0,'11111222,11111222,11144222' 
DISL,ioos:station:DISL:CATA:1,2013-12-04T17:30:00Z,30.3085,-88.1395,0.0,3.6,226.0,99.0,'11111222,11111222,11144222' 
DISL,ioos:station:DISL:CATA:1,2013-12-04T18:00:00Z,30.3085,-88.1395,0.0,2.6,209.0,99.0,'11111222,11111222,11144222' 
DISL,ioos:station:DISL:CATA:1,2013-12-04T18:30:00Z,30.3085,-88.1395,0.0,3.2,193.0,99.0,'11111222,11111222,11144222' 
DISL,ioos:station:DISL:CATA:1,2013-12-04T19:00:00Z,30.3085,-88.1395,0.0,3.9,216.0,99.0,'11111222,11111222,11144222' 
DISL,ioos:station:DISL:CATA:1,2013-12-04T19:30:00Z,30.3085,-88.1395,0.0,3.1,200.0,99.0,'11111222,11111222,11144222' 
DISL,ioos:station:DISL:CATA:1,2013-12-04T20:00:00Z,30.3085,-88.1395,0.0,3.5,193.0,99.0,'11111222,11111222,11144222' 
DISL,ioos:station:DISL:CATA:1,2013-12-04T20:30:00Z,30.3085,-88.1395,0.0,2.8,193.0,99.0,'11111222,11111222,11144222' 
DISL,ioos:station:DISL:CATA:1,2013-12-04T21:00:00Z,30.3085,-88.1395,0.0,2.8,176.0,99.0,'11111222,11111222,11144222' 
DISL,ioos:station:DISL:CATA:1,2013-12-04T21:30:00Z,30.3085,-88.1395,0.0,4.5,168.0,99.0,'11111222,11111222,11144222' 
DISL,ioos:station:DISL:CATA:1,2013-12-04T22:00:00Z,30.3085,-88.1395,0.0,3.4,141.0,99.0,'11111222,11111222,11144222' 
DISL,ioos:station:DISL:CATA:1,2013-12-04T22:30:00Z,30.3085,-88.1395,0.0,4.2,138.0,99.0,'11111222,11111222,11144222' 
DISL,ioos:station:DISL:CATA:1,2013-12-04T23:00:00Z,30.3085,-88.1395,0.0,3.9,140.0,99.0,'11111222,11111222,11144222' 
DISL,ioos:station:DISL:CATA:1,2013-12-04T23:30:00Z,30.3085,-88.1395,0.0,4.4,133.0,99.0,'11111222,11111222,11144222' 
DISL,ioos:station:DISL:CATA:1,2013-12-05T00:00:00Z,30.3085,-88.1395,0.0,4.0,133.0,99.0,'11111222,11111222,11144222' 
DISL,ioos:station:DISL:CATA:1,2013-12-05T00:30:00Z,30.3085,-88.1395,0.0,5.8,159.0,99.0,'11111222,11111222,11144222' 
DISL,ioos:station:DISL:CATA:1,2013-12-05T01:00:00Z,30.3085,-88.1395,0.0,4.6,163.0,99.0,'11111222,11111222,11144222' 
DISL,ioos:station:DISL:CATA:1,2013-12-05T01:30:00Z,30.3085,-88.1395,0.0,5.0,172.0,99.0,'11111222,11111222,11144222' 
DISL,ioos:station:DISL:CATA:1,2013-12-05T02:00:00Z,30.3085,-88.1395,0.0,5.4,176.0,99.0,'11111222,11111222,11144222' 
DISL,ioos:station:DISL:CATA:1,2013-12-05T02:30:00Z,30.3085,-88.1395,0.0,5.0,187.0,99.0,'11111222,11111222,11144222' 
DISL,ioos:station:DISL:CATA:1,2013-12-05T03:00:00Z,30.3085,-88.1395,0.0,5.1,183.0,99.0,'11111222,11111222,11144222' 
DISL,ioos:station:DISL:CATA:1,2013-12-05T03:30:00Z,30.3085,-88.1395,0.0,4.2,185.0,99.0,'11111222,11111222,11144222' 
DISL,ioos:station:DISL:CATA:1,2013-12-05T04:00:00Z,30.3085,-88.1395,0.0,3.9,184.0,99.0,'11111222,11111222,11144222' 
DISL,ioos:station:DISL:CATA:1,2013-12-05T04:30:00Z,30.3085,-88.1395,0.0,4.0,178.0,99.0,'11111222,11111222,11144222' 
DISL,ioos:station:DISL:CATA:1,2013-12-05T05:00:00Z,30.3085,-88.1395,0.0,3.1,186.0,99.0,'11111222,11111222,11144222' 
DISL,ioos:station:DISL:CATA:1,2013-12-05T05:30:00Z,30.3085,-88.1395,0.0,3.1,190.0,99.0,'11111222,11111222,11144222' 
DISL,ioos:station:DISL:CATA:1,2013-12-05T06:30:00Z,30.3085,-88.1395,0.0,2.7,182.0,99.0,'11111222,11111222,11144222' 
DISL,ioos:station:DISL:CATA:1,2013-12-05T07:00:00Z,30.3085,-88.1395,0.0,3.5,176.0,99.0,'11111222,11111222,11144222' 
DISL,ioos:station:DISL:CATA:1,2013-12-05T07:30:00Z,30.3085,-88.1395,0.0,3.8,169.0,99.0,'11111222,11111222,11144222' 
DISL,ioos:station:DISL:CATA:1,2013-12-05T08:00:00Z,30.3085,-88.1395,0.0,3.0,167.0,99.0,'11111222,11111222,11144222' 
DISL,ioos:station:DISL:CATA:1,2013-12-05T08:30:00Z,30.3085,-88.1395,0.0,2.8,156.0,99.0,'11111222,11111222,11144222' 